To NAV CANADA Home Page Login to a new session Search on AWWS site Feedback and Comments Disclaimer Vers la page française équivalente Tips FAQ What's new on the site To the Forecasts and Observations / NOTAM section To "File a Flight Plan" website Publications and other links Update of the User's profile FIC Telephone Numbers My Weather Data Folder Route Weather Data Regional Weather Data Local Weather Data To the Forecasts and Observations / NOTAM section
Request Generated 03/03/2015 at 12:39:25 UTC . Weather information available at that time is displayed.

METAR/TAF

BERENS RIVER/MB    

LWIS CYBV 031200Z AUTO 32017G29KT M19/M22 A2973=
LWIS CYBV 031100Z AUTO 33015G24KT M18/M20 A2973=
LWIS CYBV 031000Z AUTO 32017G28KT M17/M19 A2971=

CYBV - No TAF is issued for this station

Your time UTC time
Weather data provided by Environment Canada and NAV CANADA